Regional Weather Roundup
Issued by NWS Northern Indiana

Home | Current Version | Previous Version | Graphics & Text | Print | Product List | Glossary On
Versions: 1 2 3 4 5 6 7 8 9 10 11 12 13 14 15 16 17 18 19 20 21 22 23 24 25 26 27 28 29 30 31 32 33 34 35 36 37 38 39 40 41 42 43 44 45 46 47 48 49 50
000
ASUS43 KIWX 021010
RWRIWX

KIWX WEATHER ROUNDUP
NATIONAL WEATHER SERVICE NORTHERN INDIANA
600 AM EDT THU OCT 02 2014

NOTE: "FAIR" INDICATES FEW OR NO CLOUDS BELOW 12,000 FEET WITH NO
SIGNIFICANT WEATHER AND/OR OBSTRUCTIONS TO VISIBILITY.

* THESE STATIONS ARE NOT UNDER NWS QUALITY CONTROL. THEY ALSO MAY NOT
  REPORT WEATHER SUCH AS PRECIPITATION OR FOG.

INZ001>027-021100-
NORTHERN INDIANA

CITY           SKY/WX    TMP DP  RH WIND       PRES   REMARKS
GARY*          CLOUDY    63  57  82 SE9       29.89S
VALPARAISO     LGT RAIN  61  55  81 SE7       29.91F
MICHIGAN CITY* CLOUDY    59  54  82 CALM      29.91F
LAPORTE*       LGT RAIN  61  57  87 SE5       29.93F
KNOX*          CLOUDY    60  54  80 SE5       29.91S
SOUTH BEND     LGT RAIN  64  52  63 S9        29.94
GOSHEN         CLOUDY    60  50  69 SE10      29.94S
MONTICELLO*    CLOUDY    63  56  80 S5        29.92R
LOGANSPORT*    CLOUDY    61  52  72 SE6       29.94S
ROCHESTER*     CLOUDY    63  54  72 SE7       29.93F
WARSAW*        CLOUDY    59  50  72 SE5       29.95S
ANGOLA*        CLOUDY    55  50  82 SE8       29.99R
FORT WAYNE     MOCLDY    55  49  80 SE3       29.98S
HUNTINGTON*    PTCLDY    55  50  81 SE3       29.96F
PERU/GRISSOM   MOCLDY    59  57  94 SE8       29.93F
MARION*        PTCLDY    57  49  75 SE7       29.96S

$$
INZ028>050-021100-
CENTRAL INDIANA

CITY           SKY/WX    TMP DP  RH WIND       PRES   REMARKS
LAFAYETTE      CLOUDY    63  56  78 SE3       29.92R
KOKOMO*        MOCLDY    57  52  82 SE9       29.95S
MUNCIE*        PTCLDY    61  52  72 S6        29.97S
INDIANAPOLIS   CLOUDY    61  55  81 SE5       29.94S

$$
MIZ043>046-050>051-056>058-064>065-071>073-077>080-021100-
SOUTHWEST LOWER MICHIGAN

CITY           SKY/WX    TMP DP  RH WIND       PRES   REMARKS
BATTLE CREEK   CLOUDY    59  51  75 SE9       29.97S
BENTON HARBOR  LGT RAIN  58  53  84 SE9       29.92R
COLDWATER*     CLOUDY    57  53  85 SE6       29.98R
HILLSDALE*     PTCLDY    54  54 100 S6        30.00S FOG
GRAND RAPIDS   CLOUDY    58  54  86 SE5       29.96R
STURGIS*       CLOUDY    57  52  82 SE8       29.96S
THREE RIVERS*  CLOUDY    60  51  71 S5        29.96S

$$
OHZ001>008-015>018-024>025-021100-
NORTHWEST OHIO

CITY           SKY/WX    TMP DP  RH WIND       PRES   REMARKS
WAUSEON*       MOCLDY    50  50 100 SE6       30.01S FOG
DEFIANCE       CLEAR     51  48  89 E5        30.00S
FINDLAY        PTCLDY    53  50  89 SE8       30.02R FOG
TOLEDO EXPRESS CLEAR     49  48  97 E3        30.01S FOG
TOLEDO METCALF CLEAR     49  47  93 SE5       30.03S FOG
LIMA           MOCLDY    57  51  80 SE9       30.01S

$$
AND FOR LAKE MICHIGAN COASTAL AND OPEN LAKE BUOY OBSERVATIONS

STATION/POSITION TEMP    WIND        PRES    VSBY  WAVE
                 AIR SEA DIR/SP/G                  HT/PER
                 (F)     (DEG/KT/KT) (MB)    (MI)  (FT/S)
CALUMET HARBOR    64     140/  6/  8 1010.5F
MICHIGAN CITY     60     120/ 11/ 13   N/A
SAINT JOSEPH      59      CALM  /  4 1013.5F
SOUTH LAKE BUOY   63 62  150/ 17/ 19 1011.5F         4/ 5
4 MI NW BRIDGMAN  61 63  130/ 10/ 14   N/A           1/ 2
MICHIGAN CITY     62 64  130/  8/ 10   N/A           1/ 2

$$
&&


USA.gov is the U.S. government's official web portal to all federal, state and local government web resources and services.